User: anonymous   Login
Location: Bucquoy
(50.1391°N, 2.7097°E)
Time: 23:25:28
(UTC+00:00)
Language:

Cosmos 1674 Rocket - Orbit

View from above orbital plane
View from above orbital plane
View from above satellite
View from above satellite

Ground track
Ground track

The orbit data is extracted from the following two-line orbital elements,

1 15945U 85069B   21213.73577559  .00000109  00000-0  10159-4 0  9999
2 15945  82.5293 161.9768 0019532 354.3967   5.7027 14.84087124944467
Epoch (UTC): 01 August 2021 17:39:31
Eccentricity: 0.0019532
inclination: 82.5293°
perigee height: 603 km
apogee height: 630 km
right ascension of ascending node: 161.9768°
argument of perigee: 354.3967°
revolutions per day: 14.84087124
mean anomaly at epoch: 5.7027°
orbit number at epoch: 94446

The dashed part of the orbit path shows where the satellite is in the earth's shadow,  

DLR